This is the latest recevied weather packets stored in our database for station/object W2TAO. If no packets are shown the sender has not sent any weather packets the latest 10 day(s).
| Time | Temp. | Humidity | Pressure | Rain* | Wind** | Luminosity | Snow |
|---|---|---|---|---|---|---|---|
| 1778164845 | 10° C | 52% | 1013 hPa | 0 mm | - | 579 W/m² | - |
| 1778164541 | 10.56° C | 53% | 1013.1 hPa | 0 mm | - | 577 W/m² | - |
| 1778164238 | 11.11° C | 51% | 1013 hPa | 0 mm | - | 571 W/m² | - |
| 1778163938 | 10.56° C | 54% | 1013 hPa | 0 mm | - | 568 W/m² | - |
| 1778163631 | 10.56° C | 51% | 1013.2 hPa | 0 mm | - | 568 W/m² | - |
| 1778163327 | 10° C | 56% | 1013.1 hPa | 0 mm | - | 564 W/m² | - |
| 1778163024 | 10° C | 55% | 1013.3 hPa | 0 mm | - | 564 W/m² | - |
| 1778162721 | 9.44° C | 53% | 1013.3 hPa | 0 mm | - | 563 W/m² | - |
| 1778162418 | 9.44° C | 56% | 1013.4 hPa | 0 mm | - | 560 W/m² | - |
| 1778162115 | 9.44° C | 60% | 1013.2 hPa | 0 mm | - | 554 W/m² | - |
| 1778161812 | 9.44° C | 62% | 1013.3 hPa | 0 mm | - | 547 W/m² | - |
| 1778161509 | 10° C | 57% | 1013.4 hPa | 0 mm | - | 537 W/m² | - |
| 1778161204 | 9.44° C | 59% | 1013.4 hPa | 0 mm | - | 528 W/m² | - |
| 1778160900 | 8.89° C | 61% | 1013.4 hPa | 0 mm | - | 521 W/m² | - |
| 1778160599 | 8.89° C | 58% | 1013.3 hPa | 0 mm | - | 512 W/m² | - |
| 1778160295 | 9.44° C | 60% | 1013.3 hPa | 0 mm | - | 502 W/m² | - |
| 1778159991 | 8.89° C | 69% | 1013.3 hPa | 0 mm | - | 497 W/m² | - |
| 1778159689 | 8.33° C | 69% | 1013.2 hPa | 0 mm | - | 481 W/m² | - |
| 1778159385 | 7.78° C | 63% | 1013.2 hPa | 0 mm | - | 468 W/m² | - |
| 1778159082 | 7.78° C | 63% | 1013.2 hPa | 0 mm | - | 326 W/m² | - |
| 1778158781 | 7.78° C | 72% | 1013.1 hPa | 0 mm | - | 64 W/m² | - |
| 1778158479 | 7.78° C | 68% | 1013 hPa | 0 mm | - | 59 W/m² | - |
| 1778158176 | 7.78° C | 70% | 1013.1 hPa | 0 mm | - | 50 W/m² | - |
| 1778157872 | 7.78° C | 75% | 1013.2 hPa | 0 mm | - | 95 W/m² | - |
| 1778157571 | 7.22° C | 72% | 1013.2 hPa | 0 mm | - | 65 W/m² | - |
* Rain latest hour (hover to see other rain measurements)
** Current wind speed in m/s (hover to see current wind gust speed)